Wind_Speed
13 23 26 25 26 24 24 24 23 21 19 24 25 26 26 24 19 20 16 18 28 36 38 38 38 39 41 42 27 32 34 32 30 25 16 20 22 22 22 21 22 23 25
15 17 22 24 25 24 21 21 20 20 21 20 20 21 23 15 24 21 18 15 20 24 36 37 39 42 38 41 42 33 26 27 31 16 12 3 5 18 21 23 25 24 26
18 16 15 24 27 26 23 21 21 19 19 22 21 21 22 23 23 27 27 24 24 23 18 37 39 41 35 31 41 38 33 25 31 29 12 3 5 3 15 28 27 28 28
15 16 12 21 24 24 23 23 19 18 19 21 23 23 16 17 23 30 35 36 35 34 30 25 30 42 39 37 32 36 35 30 22 24 31 11 10 4 1 9 27 29 29
13 15 13 22 27 25 24 22 19 19 21 23 22 23 22 21 22 23 29 36 38 38 38 33 27 30 40 38 37 43 38 37 27 26 26 23 16 9 3 3 5 25 29
16 14 22 24 27 26 25 21 21 21 24 24 22 20 22 25 26 28 28 27 31 39 38 34 35 30 36 39 39 39 36 32 30 26 25 28 23 20 5 2 3 8 19
15 13 13 16 22 26 24 19 21 20 22 22 20 20 20 23 25 24 26 30 31 31 36 33 29 31 29 37 37 37 37 35 34 31 28 28 29 26 23 13 4 3 13
13 13 12 21 22 21 21 21 22 22 23 24 23 21 21 22 24 24 25 29 31 34 36 37 36 36 36 32 39 37 36 34 37 35 32 28 29 29 29 24 9 1 4
14 17 18 20 19 19 20 22 23 22 24 26 26 25 23 23 26 28 29 30 32 35 36 37 38 35 38 34 38 37 35 34 35 35 36 35 31 31 33 29 27 14 5
12 10 10 14 16 18 18 21 22 23 26 27 27 28 29 29 29 30 30 31 34 35 39 39 38 38 35 39 38 38 37 36 34 35 34 35 33 35 33 31 27 20 13
10 9 11 15 17 18 21 22 23 25 27 26 29 29 29 30 30 30 30 30 32 31 35 37 38 39 38 40 37 39 35 37 36 36 34 36 37 37 35 33 26 28 25
12 11 14 18 20 22 24 25 26 25 26 26 27 27 26 27 26 26 28 29 30 29 28 30 37 43 38 37 38 40 37 40 37 37 37 39 40 40 41 34 32 26 27
14 12 14 17 20 23 24 24 26 26 25 27 27 26 26 26 26 26 26 25 26 24 21 22 23 30 34 35 39 39 37 37 39 40 39 39 34 36 30 27 23 26 27
13 12 11 15 19 21 22 23 24 25 25 26 26 26 28 28 27 26 27 27 27 25 23 18 16 8 12 25 35 41 41 40 40 37 42 35 32 36 32 28 27 28 25
12 11 12 13 18 19 21 23 22 25 27 28 28 30 29 28 27 26 26 27 27 28 32 32 27 14 13 6 18 28 36 35 29 25 26 30 30 32 33 34 30 26 21
11 12 12 16 18 20 20 19 23 27 29 28 30 32 29 26 25 28 33 34 35 30 36 42 29 30 33 22 2 9 19 17 20 25 26 26 31 35 36 33 28 24 24
11 9 10 13 15 17 20 23 25 29 28 30 32 30 28 26 29 31 32 33 32 32 36 40 35 42 42 49 39 24 33 37 27 21 18 24 26 27 28 26 24 19 14
9 6 11 14 16 19 21 23 27 27 28 30 30 33 31 30 33 33 33 34 34 35 39 43 42 43 50 50 50 42 44 46 40 32 24 20 22 18 24 24 23 20 17
9 11 15 15 17 20 20 22 26 25 28 29 30 30 33 31 32 34 33 32 34 37 40 41 48 50 53 52 46 47 43 43 44 43 32 25 25 16 16 24 28 25 22
12 13 14 14 15 17 17 21 19 20 26 29 28 27 29 32 33 30 33 31 33 36 38 43 47 47 52 51 48 39 43 36 33 43 37 36 34 27 20 25 25 23 18
11 13 13 14 14 15 20 21 21 22 21 25 33 35 31 31 32 30 31 33 31 34 36 39 42 46 47 49 49 43 40 33 33 34 33 35 31 39 35 31 30 23 24
10 9 11 14 19 22 22 18 23 22 23 21 25 35 36 32 35 33 33 31 33 33 34 35 37 40 42 41 40 40 39 35 32 28 31 32 34 35 35 36 30 32 31
11 12 13 16 19 21 20 22 19 21 23 25 25 26 34 34 31 36 34 33 32 30 30 31 31 32 35 38 37 34 34 34 34 30 31 31 32 35 34 33 33 31 27
12 14 15 16 17 17 19 21 22 20 22 23 25 24 23 30 32 30 31 32 32 31 29 28 27 27 30 33 31 30 31 30 30 30 32 32 33 33 33 33 32 30 26
14 14 15 15 16 17 22 23 23 22 22 24 25 24 25 22 25 27 28 30 33 32 28 28 27 28 29 29 29 28 28 27 25 25 29 30 29 28 27 27 28 27 24
16 17 16 16 14 17 20 25 23 24 24 21 22 25 23 25 23 19 21 25 27 27 27 29 30 30 28 26 26 29 28 27 26 30 27 25 24 23 22 21 21 24 24
Wind_Direction
117 94 86 79 76 68 60 42 34 26 15 1 353 347 340 326 313 303 308 270 260 249 229 232 236 236 233 227 208 212 210 212 214 195 212 229 228 227 223 219 220 223 230
115 103 89 78 74 69 61 45 32 17 12 359 349 343 334 321 316 313 319 319 293 293 257 237 236 235 237 230 222 204 201 202 197 182 166 174 233 228 223 220 221 228 228
120 102 89 82 75 66 59 48 32 17 5 358 346 336 321 317 327 316 310 303 299 299 313 263 245 248 244 241 240 223 207 200 191 196 168 151 212 161 214 225 227 227 224
87 89 82 76 71 60 50 42 29 17 8 356 352 349 343 327 318 311 306 298 294 292 294 297 277 252 243 238 235 258 222 215 198 195 205 194 158 168 188 227 230 229 228
84 80 78 77 62 49 42 35 21 8 355 348 348 343 334 324 316 310 309 302 294 290 288 288 291 278 252 240 232 226 221 219 209 204 204 207 187 194 141 176 206 225 230
81 71 68 64 56 47 38 27 9 357 347 344 342 339 331 322 316 312 307 302 301 296 294 291 285 288 262 245 234 228 219 213 223 220 215 212 208 215 178 139 161 206 225
71 68 65 59 56 45 36 23 7 357 351 346 336 330 321 313 302 300 299 299 298 294 292 294 291 279 287 248 239 232 227 223 217 222 212 218 220 218 212 176 171 162 212
70 69 65 54 49 42 29 18 7 354 347 340 332 324 318 310 301 295 290 286 285 285 287 285 281 273 265 270 242 236 234 214 213 214 216 221 218 213 208 199 165 154 200
59 48 50 51 45 32 24 13 4 353 344 337 333 327 322 315 303 297 291 284 280 280 282 280 278 274 268 267 241 236 230 222 219 215 209 215 218 211 214 205 196 182 197
70 65 65 61 47 35 18 10 3 355 344 339 335 328 324 320 311 305 296 288 284 280 279 274 271 269 262 256 243 227 222 221 218 217 208 204 209 212 206 208 212 197 198
70 54 56 47 38 28 15 9 359 353 348 341 336 331 325 321 317 309 302 296 292 285 278 276 270 263 255 251 243 228 225 219 220 215 208 203 204 194 196 199 198 209 202
67 50 40 32 24 16 10 5 358 353 349 343 338 332 327 325 322 318 316 311 305 300 289 285 286 254 242 241 242 221 222 222 215 212 205 205 200 194 193 209 221 194 206
51 41 32 24 18 13 7 1 356 351 348 348 345 340 340 339 335 335 328 333 328 321 316 307 298 252 239 235 241 221 219 218 214 209 204 210 198 202 203 204 202 205 215
45 36 30 23 18 11 3 358 354 355 352 351 351 352 355 352 350 347 354 353 353 350 0 359 340 325 253 242 236 228 219 222 216 207 209 210 200 198 197 202 205 198 197
41 32 26 20 15 9 5 1 359 359 357 357 358 359 359 2 8 5 10 9 10 10 27 27 14 11 26 318 249 231 223 221 215 203 199 196 193 190 189 188 190 186 176
42 32 29 22 13 9 1 359 3 4 6 5 3 2 3 7 13 20 23 24 21 16 33 34 12 37 34 50 28 253 239 182 177 155 152 153 162 166 173 177 171 173 174
50 35 32 23 10 5 6 10 10 13 12 12 9 3 4 9 19 25 27 27 27 31 36 40 27 33 39 48 62 96 88 76 71 84 109 128 130 144 147 143 148 153 175
59 32 30 21 16 16 18 19 21 16 17 15 9 8 7 15 21 26 27 29 29 33 39 40 37 38 37 50 59 59 67 72 64 60 67 81 112 121 132 131 125 119 115
64 55 48 37 29 32 31 35 33 25 26 18 12 10 15 17 23 25 26 28 31 35 39 39 41 43 39 41 53 60 61 60 64 59 58 65 83 87 113 123 109 103 100
87 69 58 48 37 35 43 43 30 28 34 28 22 19 21 25 24 23 27 31 36 39 39 41 40 40 43 41 50 50 62 61 62 64 54 63 64 82 98 97 92 87 85
106 85 63 47 36 31 45 44 34 30 33 33 38 39 33 29 32 31 33 32 35 39 40 42 39 40 39 41 47 51 54 56 58 61 60 59 59 67 69 78 76 76 82
97 92 78 56 43 37 40 37 43 40 45 38 37 42 41 36 35 36 34 34 37 38 36 39 38 35 38 41 45 54 59 61 63 58 59 61 64 68 71 73 78 76 75
100 85 69 56 42 36 34 28 40 43 48 45 42 37 42 43 37 39 36 35 36 38 37 37 36 32 32 35 42 46 55 63 61 63 66 68 69 66 62 64 67 68 68
89 84 73 61 48 36 34 37 42 43 44 42 39 39 37 43 46 44 45 44 39 38 36 35 35 34 37 36 36 42 48 53 59 61 62 61 62 67 65 61 61 60 59
91 88 80 69 53 45 45 47 46 47 43 43 40 38 39 38 47 53 52 55 50 46 44 41 36 34 34 38 40 45 48 51 55 58 54 48 45 45 43 48 51 51 53
99 91 85 74 58 53 49 47 49 51 51 46 41 41 44 46 48 51 62 56 50 47 47 45 44 44 41 40 42 44 46 47 50 53 49 47 44 43 39 37 37 42 45
Height
728 731 734 736 736 739 743 747 748 749 750 752 750 747 746 743 741 741 742 741 740 737 736 740 743 744 746 746 749 753 757 760 764 771 773 775 778 780 782 783 784 785 787
728 730 736 739 742 743 746 749 753 754 754 753 754 752 748 743 741 738 737 737 736 736 735 732 734 736 737 742 742 744 750 753 757 762 766 774 776 775 777 779 779 779 781
723 731 738 742 747 750 752 753 754 757 758 755 753 750 746 742 738 734 732 731 730 730 730 729 729 732 734 735 738 737 741 746 749 754 758 770 769 767 769 772 774 775 775
733 735 743 747 750 754 755 753 757 761 760 757 755 754 752 748 744 739 733 729 726 725 725 726 725 724 726 732 732 739 738 740 744 749 752 752 753 761 767 766 767 770 771
742 741 746 751 755 755 754 755 761 762 760 758 756 753 750 748 743 740 734 727 722 719 719 721 720 718 718 720 725 732 732 732 736 739 743 748 750 752 755 762 763 766 767
742 748 751 753 755 758 758 761 764 764 762 758 756 754 751 746 741 736 732 727 721 714 713 714 715 712 712 712 715 719 722 726 734 735 738 740 742 745 748 752 756 760 761
746 753 755 758 759 761 763 767 766 763 760 758 755 752 749 746 742 737 731 725 719 713 708 709 709 708 706 706 708 712 713 718 725 729 730 736 738 739 742 745 748 753 756
751 758 759 757 763 767 770 769 767 763 759 756 753 749 745 741 738 733 729 723 717 711 705 701 701 701 700 698 698 702 705 710 712 718 724 728 733 736 737 736 742 751 754
756 751 759 768 771 772 771 769 766 762 759 754 749 744 739 735 732 727 722 715 711 704 699 695 692 691 691 691 690 692 697 699 705 709 714 719 725 729 733 731 731 735 748
761 767 772 775 775 773 773 768 765 762 758 752 747 741 734 729 725 720 714 708 703 698 692 688 684 682 682 681 681 681 684 689 693 701 706 709 715 720 721 724 727 728 738
768 773 778 779 778 776 772 769 766 762 757 752 746 739 732 727 721 714 707 701 695 690 684 679 674 671 671 672 671 670 673 677 684 692 694 700 705 708 713 716 718 725 724
776 780 781 779 776 774 770 768 766 763 759 754 747 740 734 727 719 711 704 696 687 680 673 667 662 654 657 659 659 658 661 669 675 680 684 690 695 698 704 706 710 715 718
778 781 781 780 778 775 774 772 769 766 761 755 748 741 733 724 717 709 702 693 684 674 666 657 651 643 644 647 649 648 652 655 661 669 672 680 685 689 694 699 707 709 709
783 785 786 785 783 781 780 777 773 769 763 756 749 741 732 725 717 709 699 690 683 674 662 652 646 638 633 635 639 641 643 648 653 659 663 667 674 678 685 694 701 705 709
790 791 790 788 788 786 784 780 777 771 764 757 749 741 734 728 719 712 702 694 684 675 664 652 648 638 632 629 628 628 636 641 645 650 657 662 668 674 680 686 691 695 701
794 794 794 794 792 790 789 786 779 772 764 759 751 743 738 732 724 713 702 695 687 679 666 656 660 647 640 629 625 626 633 635 642 648 654 660 665 669 675 680 686 692 698
798 801 800 799 797 796 792 785 779 773 768 762 756 749 743 735 725 717 710 702 697 690 678 670 666 650 646 634 625 631 623 635 650 657 662 663 666 669 673 679 683 690 697
804 805 802 802 800 797 792 788 782 778 773 767 762 754 747 738 729 722 716 710 703 695 686 680 668 666 655 649 652 652 647 649 660 667 673 672 669 678 677 680 686 693 696
807 807 806 805 803 799 795 791 787 785 778 773 768 762 753 745 737 730 725 719 711 704 699 692 682 677 672 668 663 660 664 670 672 680 685 688 679 685 686 685 689 699 701
810 809 808 808 805 802 799 794 792 789 784 780 775 769 762 752 746 740 734 729 722 716 710 703 698 694 690 695 685 684 676 685 692 687 696 697 689 689 699 694 696 702 705
810 810 810 809 807 805 800 797 796 792 790 787 784 776 768 762 756 750 743 738 732 726 722 717 715 711 710 707 704 705 699 701 702 702 702 706 709 692 695 702 702 705 706
811 812 812 811 809 805 802 802 799 798 794 791 788 782 776 771 764 757 753 748 742 737 734 730 728 727 725 725 723 721 720 720 720 720 717 717 718 717 711 709 714 710 711
813 814 813 812 811 810 809 806 804 802 799 794 791 787 783 779 773 766 762 757 753 750 748 745 744 743 740 737 734 733 733 731 730 730 727 727 727 720 721 720 716 718 721
814 815 815 816 816 816 813 810 807 805 801 798 794 792 788 786 782 778 774 770 767 764 762 760 758 756 752 750 748 745 742 741 738 737 735 733 731 729 730 729 729 730 730
816 817 819 820 820 819 815 812 809 806 804 801 799 798 795 792 790 787 785 782 781 778 775 772 769 765 760 762 760 755 752 750 748 745 743 741 740 740 742 741 740 740 740
819 821 822 823 823 821 818 815 813 811 809 807 805 803 801 799 796 794 793 792 790 787 785 782 778 776 774 771 766 761 758 755 753 749 751 752 752 752 753 752 751 750 747